P/2014 OL465 ( PanSTARRS ) 2023

Japanese version
Home page
Updated on May 22, 2023

---------------------------------------------------------------------

* Profile

* Orbital Elements

Epoch 2023 Feb. 25.0 TT = JDT 2460000.5                                         
T 2023 Feb. 28.23175 TT                                 Rudenko                 
q   3.3725329            (2000.0)            P               Q                  
n   0.09707054     Peri.  267.70555     -0.74107864     +0.60818380             
a   4.6889732      Node   309.59564     -0.36800539     -0.72228880             
e   0.2807524      Incl.   21.66341     -0.56158213     -0.32925880             
P  10.2                                                                         
>From 81 observations 2012 Mar. 21-2023 May 19.                                  

* Magnitudes Graph

        m1 = -11.0 + 5 log d + 50 log r(t - 100)

        * Gray curve is:  H = 15.5  G = 0.15

---------------------------------------------------------------------

The orbital elements are published on M.P.E.C. 2023-K66.
The magnitudes graphs are made with Comet for Windows.

---------------------------------------------------------------------

Copyright(C) Seiichi Yoshida (comet@aerith.net). All rights reserved.